User: anonymous   Login
Location: ???????
(55.4362°N, 38.1183°E)
Time: 15:21:28
(UTC+00:00)
Language:

BEESAT - Orbit

View from above orbital plane
View from above orbital plane
View from above satellite
View from above satellite

Ground track
Ground track

The orbit data is extracted from the following two-line orbital elements,

1 35933U 09051C   22336.86166084  .00000564  00000-0  13596-3 0  9995
2 35933  98.5380 198.8358 0004578 263.3937  96.6740 14.57090334700697
Epoch (UTC): 02 December 2022 20:40:47
Eccentricity: 0.0004578
inclination: 98.5380°
perigee height: 699 km
apogee height: 706 km
right ascension of ascending node: 198.8358°
argument of perigee: 263.3937°
revolutions per day: 14.57090334
mean anomaly at epoch: 96.6740°
orbit number at epoch: 70069

The dashed part of the orbit path shows where the satellite is in the earth's shadow,  

DLR